Location: Condor
(52.3263°N, 114.5541°W)
Time: 16:37:49
(UTC+00:00)

BlueWalker 3 - Visible Passes

Search period start: 05 June 2023 00:00
Search period end: 15 June 2023 00:00
Orbit: 494 x 513 km, 53.2° (Epoch: 05 June)

Date Brightness Start Highest point End Pass type
(mag) Time Alt. Az. Time Alt. Az. Time Alt. Az.
05 Jun 2.1 04:56:29 10° W 05:00:21 77° N 05:04:13 10° E visible
05 Jun 1.8 06:35:05 10° WNW 06:38:58 79° SSW 06:42:49 10° ESE visible
05 Jun 2.9 08:13:51 10° W 08:17:09 27° SW 08:17:27 26° SSW visible
06 Jun 2.1 04:36:04 10° W 04:39:56 77° N 04:43:50 10° E visible
06 Jun 1.8 06:14:40 10° WNW 06:18:33 78° SSW 06:22:19 11° ESE visible
06 Jun 3.0 07:53:27 10° W 07:56:44 26° SW 07:56:57 26° SSW visible
07 Jun 1.8 05:54:16 10° WNW 05:58:08 77° SSW 06:01:57 10° ESE visible
07 Jun 3.0 07:33:03 10° W 07:36:18 26° SW 07:36:36 25° SSW visible
08 Jun 1.9 05:33:50 10° WNW 05:37:42 76° SSW 05:41:34 10° ESE visible
08 Jun 3.1 07:12:38 10° W 07:15:51 25° SW 07:16:22 24° SSW visible
09 Jun 1.9 05:13:23 10° WNW 05:17:15 75° SSW 05:21:07 10° ESE visible
09 Jun 3.2 06:52:12 10° W 06:55:24 25° SW 06:56:12 23° SSW visible
10 Jun 1.9 04:52:56 10° WNW 04:56:47 75° SSW 05:00:40 10° ESE visible
10 Jun 3.3 06:31:46 10° W 06:34:56 24° SW 06:36:05 21° S visible
11 Jun 3.3 06:11:20 10° W 06:14:28 24° SW 06:16:01 18° S visible
12 Jun 3.4 05:50:52 10° W 05:53:58 23° SW 05:56:00 16° S visible
13 Jun 3.5 05:30:24 10° W 05:33:29 23° SW 05:36:01 13° S visible
14 Jun 3.5 05:09:56 10° W 05:12:58 22° SW 05:16:00 10° SSE visible
